Location: Peebles
(55.6412°N, 3.1714°W)
Time: 16:10:55
(UTC+01:00)

SPOT 1/Viking Rocket - Pass Details

Date: 26 September 2021
Orbit: 776 x 794 km, 98.4° (Epoch: 18 October)

Event Time Altitude Azimuth Distance (km) Brightness Sun altitude
Exits shadow 21:06:35 33° 108° (ESE) 1,306 4.1 -18.1°
Maximum altitude 21:08:19 44° 63° (ENE) 1,077 4.0 -18.3°
Drops below altitude 10° 21:13:11 10° 353° (N) 2,345 6.4 -18.9°
Sets 21:15:36 0° 347° (NNW) 3,276 7.4 -19.2°
